sat.trackr.live / text

‹ back to catalog

GMS-T

NORAD 47346 · 2021-004A

PAYLOAD ACTIVE UNKNOWN

§ Identity

Operator
Country
GER
Launch date
2021-01-20
Launch site
RLLB
Launch vehicle
Mass (kg)
RCS (m²)

External: N2YO · Heavens-Above · Gunter

§ Orbital elements

Epoch: 2026-05-25T05:07:23.200608Z

Period
109.37 min
Inclination
90.1296°
Eccentricity
0.0004480
Mean motion
13.16658323 rev/d
Perigee alt
1,194.1 km
Apogee alt
1,200.9 km
Semi-major
7,575.6 km
B*
-5.4255e-5
RAAN
241.5440°
Arg perigee
103.1280°
Mean anomaly
257.0352°
Rev number
25,657

§ Raw data

GMS-T1 47346U 21004A   26145.21346297 -.00000013  00000+0 -54255-4 0  99932 47346  90.1296 241.5440 0004480 103.1280 257.0352 13.16658323256571

JSON: /api/v1/satellites/47346 · /tle

For live sub-satellite position, see the globe view (requires WebGL).

§ Visibility from observer

Set your observer location to see the next 7 days of passes ≥ 10°. The values pass through the URL so the page stays shareable.

No JS? Fill the form by hand. The geolocation button needs JavaScript.